ONEWEB-0279 (48997 NORAD) Tracking and Keplerian Element Data

This shows tracking and keplerian element data for the satellite.

Feedback or suggestion? Click here.




ElementValue
Catalog48997
NameONEWEB-0279
Epoch Orbit567
Epoch Day211.25001157
Epoch Year2021
RAAN227.4267
Inclination87.4496
Eccentricity0.0012262
Argument of Perigee151.1317
Mean Anonmoly121.8027
Mean Motion14.95670929
Decay Rate-0.01465739
L11 48997U 21060AG 21211.25001157 -.01465739 00000-0 -14441+0 0 9994
L22 48997 87.4496 227.4267 0012262 151.1317 121.8027 14.95670929 5670

Live tracking and technical data element details for ONEWEB-0279 (NORAD 48997). ONEWEB-0279 can be tracked NOW for your location showing map with azimuth and elevation plus other details from your city location.

Track the satellite on the map from your city or location and see movement details for azimuth, elevation, latitude, longitude, range, height, and movement on the map or in text.







IsCatalogInMostPopularTable: catalog: 48997, numindb: 3
Update: records affected: 1



GetName: 48997 ONEWEB-0279

Hit Count: updated at: Sat, 31 Jul 2021 16:16:05 GMT